QPF
0.02 0.00 0.00 0.00 0.00 0.00 0.00 0.00 0.00 0.00 0.00 0.00 0.00 0.00 0.00 0.00 0.00 0.00 0.00 0.00 0.00 0.00 0.01 0.00 0.00 0.00 0.00 0.00 0.00 0.01 0.00 0.01 0.00
0.06 0.02 0.00 0.00 0.00 0.00 0.00 0.00 0.00 0.00 0.00 0.00 0.00 0.00 0.00 0.00 0.00 0.00 0.00 0.00 0.00 0.00 0.00 0.00 0.00 0.00 0.00 0.00 0.00 0.00 0.00 0.00 0.00
0.02 0.01 0.00 0.01 0.00 0.02 0.05 0.03 0.01 0.00 0.00 0.00 0.00 0.00 0.00 0.00 0.00 0.00 0.00 0.00 0.00 0.00 0.00 0.00 0.00 0.00 0.00 0.00 0.00 0.00 0.00 0.00 0.00
0.00 0.00 0.02 0.03 0.01 0.03 0.05 0.10 0.09 0.01 0.00 0.00 0.00 0.00 0.00 0.00 0.00 0.00 0.00 0.00 0.00 0.00 0.00 0.00 0.00 0.00 0.00 0.00 0.01 0.00 0.00 0.00 0.00
0.00 0.00 0.01 0.02 0.01 0.00 0.00 0.02 0.06 0.06 0.00 0.00 0.00 0.00 0.00 0.00 0.00 0.00 0.00 0.00 0.00 0.00 0.00 0.00 0.00 0.00 0.00 0.00 0.00 0.00 0.00 0.00 0.00
0.00 0.00 0.00 0.00 0.00 0.00 0.00 0.00 0.00 0.00 0.00 0.00 0.00 0.00 0.00 0.00 0.00 0.00 0.00 0.00 0.00 0.00 0.00 0.00 0.00 0.00 0.00 0.00 0.00 0.00 0.00 0.00 0.00
0.00 0.00 0.00 0.00 0.00 0.00 0.00 0.00 0.00 0.00 0.00 0.00 0.00 0.00 0.00 0.00 0.00 0.00 0.00 0.00 0.00 0.00 0.00 0.00 0.00 0.00 0.00 0.00 0.00 0.00 0.00 0.00 0.00
0.00 0.00 0.00 0.00 0.00 0.00 0.00 0.00 0.00 0.00 0.00 0.00 0.00 0.00 0.00 0.00 0.00 0.00 0.00 0.00 0.00 0.00 0.00 0.00 0.00 0.00 0.00 0.00 0.00 0.00 0.00 0.00 0.00
0.00 0.00 0.00 0.00 0.00 0.00 0.00 0.01 0.02 0.02 0.03 0.01 0.01 0.01 0.00 0.00 0.00 0.00 0.00 0.00 0.00 0.00 0.00 0.00 0.00 0.00 0.00 0.00 0.00 0.00 0.00 0.00 0.00
0.00 0.00 0.00 0.00 0.00 0.00 0.00 0.00 0.00 0.00 0.01 0.02 0.02 0.04 0.02 0.00 0.00 0.00 0.00 0.00 0.00 0.00 0.00 0.00 0.00 0.00 0.00 0.00 0.00 0.00 0.00 0.00 0.00
0.00 0.00 0.00 0.00 0.00 0.00 0.00 0.00 0.00 0.00 0.00 0.00 0.01 0.02 0.05 0.05 0.02 0.00 0.00 0.00 0.00 0.00 0.00 0.00 0.00 0.00 0.00 0.00 0.00 0.00 0.00 0.00 0.00
0.00 0.00 0.00 0.00 0.00 0.00 0.00 0.00 0.00 0.00 0.00 0.00 0.00 0.01 0.01 0.03 0.04 0.04 0.03 0.00 0.00 0.00 0.00 0.00 0.00 0.00 0.00 0.00 0.01 0.00 0.00 0.00 0.00
0.00 0.00 0.00 0.00 0.00 0.00 0.00 0.00 0.00 0.00 0.00 0.00 0.00 0.00 0.00 0.00 0.01 0.04 0.08 0.06 0.03 0.01 0.00 0.00 0.00 0.00 0.00 0.00 0.01 0.01 0.00 0.00 0.00
0.00 0.00 0.00 0.00 0.00 0.00 0.00 0.00 0.00 0.00 0.00 0.00 0.00 0.00 0.00 0.00 0.00 0.00 0.01 0.03 0.06 0.08 0.03 0.01 0.00 0.00 0.00 0.00 0.01 0.01 0.01 0.00 0.00
0.00 0.00 0.00 0.00 0.00 0.00 0.00 0.00 0.00 0.00 0.00 0.00 0.00 0.00 0.00 0.00 0.00 0.00 0.00 0.00 0.01 0.03 0.07 0.07 0.03 0.01 0.00 0.00 0.01 0.01 0.02 0.01 0.01
0.00 0.00 0.00 0.00 0.00 0.00 0.00 0.00 0.00 0.00 0.00 0.00 0.00 0.00 0.00 0.00 0.00 0.00 0.00 0.00 0.00 0.00 0.01 0.03 0.03 0.01 0.02 0.02 0.01 0.01 0.01 0.02 0.02
0.00 0.00 0.00 0.00 0.00 0.00 0.00 0.00 0.00 0.00 0.00 0.00 0.00 0.00 0.00 0.00 0.00 0.00 0.00 0.00 0.00 0.00 0.00 0.00 0.01 0.01 0.00 0.00 0.03 0.03 0.01 0.01 0.03
0.00 0.00 0.00 0.00 0.00 0.00 0.00 0.00 0.00 0.00 0.00 0.00 0.00 0.00 0.00 0.00 0.00 0.00 0.00 0.00 0.00 0.00 0.00 0.01 0.01 0.01 0.01 0.00 0.00 0.01 0.02 0.01 0.02
0.00 0.00 0.00 0.00 0.00 0.00 0.00 0.00 0.00 0.00 0.00 0.00 0.00 0.00 0.00 0.00 0.00 0.00 0.00 0.00 0.00 0.00 0.00 0.02 0.04 0.08 0.08 0.06 0.04 0.01 0.00 0.01 0.02
0.00 0.00 0.00 0.00 0.00 0.00 0.00 0.00 0.00 0.00 0.00 0.00 0.00 0.00 0.00 0.00 0.00 0.00 0.00 0.00 0.00 0.00 0.00 0.01 0.02 0.03 0.03 0.03 0.04 0.05 0.03 0.02 0.02
MSLP
1016.11 1016.21 1016.31 1016.36 1016.37 1016.30 1016.31 1016.40 1016.56 1016.66 1016.78 1016.88 1016.93 1017.01 1017.04 1016.93 1016.83 1016.64 1016.34 1016.65 1016.87 1017.04 1017.19 1017.36 1017.50 1017.59 1017.62 1017.74 1017.77 1017.78 1017.87 1018.01 1018.12
1016.03 1016.02 1016.14 1016.22 1016.27 1016.23 1016.21 1016.29 1016.42 1016.56 1016.66 1016.76 1016.81 1016.89 1016.98 1016.95 1016.83 1016.55 1016.44 1016.58 1016.70 1016.84 1017.21 1017.41 1017.50 1017.61 1017.66 1017.71 1017.82 1017.93 1018.00 1018.15 1018.28
1015.75 1015.79 1015.79 1015.91 1016.02 1016.06 1016.10 1016.12 1016.21 1016.35 1016.43 1016.52 1016.65 1016.82 1016.93 1016.83 1016.67 1016.38 1016.18 1016.43 1016.59 1016.70 1016.94 1017.16 1017.31 1017.52 1017.63 1017.80 1017.90 1017.91 1018.06 1018.07 1018.26
1015.50 1015.51 1015.52 1015.53 1015.60 1015.65 1015.73 1015.83 1015.92 1016.02 1016.13 1016.25 1016.35 1016.51 1016.69 1016.82 1016.61 1016.30 1016.00 1016.14 1016.33 1016.53 1016.72 1017.02 1017.11 1017.19 1017.42 1017.58 1017.79 1017.81 1018.02 1018.15 1018.29
1015.23 1015.16 1015.13 1015.17 1015.07 1015.20 1015.29 1015.30 1015.34 1015.52 1015.67 1015.85 1016.01 1016.19 1016.35 1016.55 1016.46 1016.13 1015.81 1015.80 1015.92 1016.20 1016.45 1016.72 1016.92 1017.03 1017.16 1017.32 1017.54 1017.68 1017.96 1018.09 1018.22
1015.02 1015.05 1015.04 1015.00 1014.94 1014.85 1014.82 1014.81 1014.89 1015.03 1015.15 1015.28 1015.46 1015.71 1015.93 1016.06 1016.04 1015.81 1015.50 1015.39 1015.61 1015.88 1016.17 1016.34 1016.57 1016.74 1016.94 1017.03 1017.25 1017.51 1017.77 1017.96 1018.03
1014.91 1014.89 1014.76 1014.76 1014.66 1014.66 1014.67 1014.67 1014.67 1014.79 1014.81 1014.84 1015.00 1015.19 1015.31 1015.40 1015.24 1015.05 1014.84 1014.80 1015.00 1015.30 1015.64 1015.91 1016.16 1016.36 1016.53 1016.69 1016.89 1017.15 1017.45 1017.63 1017.73
1015.12 1014.89 1014.61 1014.51 1014.32 1014.29 1014.21 1014.33 1014.40 1014.41 1014.38 1014.29 1014.30 1014.43 1014.61 1014.65 1014.54 1014.23 1014.10 1014.20 1014.40 1014.75 1015.17 1015.46 1015.71 1015.96 1016.16 1016.31 1016.48 1016.69 1016.98 1017.19 1017.31
1015.36 1015.08 1014.72 1014.44 1014.20 1014.07 1013.84 1013.68 1013.64 1013.80 1013.89 1013.80 1013.61 1013.69 1013.86 1013.85 1013.60 1013.45 1013.54 1013.52 1013.71 1014.03 1014.47 1014.91 1015.16 1015.44 1015.66 1015.82 1016.02 1016.21 1016.46 1016.65 1016.81
1015.41 1015.21 1014.89 1014.64 1014.33 1014.16 1013.95 1013.75 1013.40 1013.30 1013.33 1013.30 1013.29 1013.27 1013.28 1013.20 1013.09 1012.89 1013.07 1013.06 1013.08 1013.35 1013.71 1014.13 1014.54 1014.80 1015.09 1015.29 1015.47 1015.69 1015.91 1016.12 1016.33
1015.54 1015.39 1015.13 1014.84 1014.52 1014.23 1013.98 1013.75 1013.53 1013.32 1012.97 1012.86 1012.64 1012.69 1012.68 1012.73 1012.65 1012.47 1012.49 1012.69 1012.80 1012.73 1012.97 1013.26 1013.64 1014.01 1014.23 1014.53 1014.78 1015.00 1015.19 1015.37 1015.62
1015.55 1015.51 1015.43 1015.03 1014.64 1014.28 1013.98 1013.68 1013.38 1013.21 1012.92 1012.75 1012.50 1012.20 1012.09 1012.12 1012.17 1012.17 1012.20 1012.34 1012.41 1012.30 1012.35 1012.55 1012.88 1013.19 1013.51 1013.60 1013.78 1014.09 1014.39 1014.64 1014.87
1015.54 1015.55 1015.37 1014.91 1014.62 1014.38 1014.23 1013.94 1013.66 1013.39 1013.10 1012.73 1012.34 1011.98 1011.68 1011.58 1011.47 1011.49 1011.66 1011.67 1011.80 1012.08 1011.95 1011.95 1012.21 1012.45 1012.66 1012.91 1013.06 1013.21 1013.56 1013.84 1014.10
1015.44 1015.33 1015.09 1014.76 1014.56 1014.41 1014.21 1013.92 1013.71 1013.57 1013.22 1012.78 1012.33 1012.02 1011.71 1011.44 1011.08 1011.19 1011.10 1011.10 1011.18 1011.40 1011.45 1011.49 1011.55 1011.79 1011.77 1011.94 1012.12 1012.44 1012.77 1013.06 1013.34
1015.44 1015.19 1014.96 1014.65 1014.53 1014.31 1014.07 1013.83 1013.54 1013.36 1013.23 1012.80 1012.30 1012.01 1011.68 1011.48 1011.34 1011.17 1010.76 1010.67 1010.68 1010.73 1010.86 1011.07 1011.20 1011.09 1011.25 1011.26 1011.21 1011.39 1011.75 1012.09 1012.44
1015.56 1015.39 1015.15 1014.70 1014.53 1014.24 1013.96 1013.65 1013.54 1013.35 1012.97 1012.76 1012.28 1011.94 1011.59 1011.28 1011.10 1011.00 1010.80 1010.61 1010.29 1010.13 1010.11 1010.20 1010.33 1010.34 1010.59 1010.57 1010.66 1010.73 1010.83 1011.12 1011.38
1015.45 1015.38 1015.23 1014.97 1014.67 1014.31 1014.09 1013.69 1013.45 1013.22 1012.95 1012.91 1012.50 1012.07 1011.71 1011.29 1010.79 1010.66 1010.52 1010.19 1009.92 1009.79 1009.59 1009.46 1009.58 1009.72 1009.60 1009.77 1010.00 1010.14 1010.18 1010.23 1010.43
1015.38 1015.32 1015.30 1015.16 1014.90 1014.47 1014.12 1013.83 1013.42 1013.09 1012.87 1012.65 1012.82 1012.18 1011.70 1011.44 1010.96 1010.70 1010.68 1010.35 1009.93 1009.63 1009.34 1008.90 1008.65 1008.80 1008.86 1008.96 1009.05 1009.16 1009.40 1009.47 1009.61
1015.42 1015.49 1015.46 1015.29 1014.96 1014.55 1014.20 1013.64 1013.17 1012.81 1012.69 1012.43 1012.14 1012.06 1011.84 1011.57 1011.05 1010.85 1010.42 1010.04 1009.90 1009.54 1009.30 1008.99 1008.34 1008.11 1008.22 1008.32 1008.37 1008.54 1008.82 1008.90 1008.90
1015.50 1015.44 1015.25 1015.07 1014.87 1014.52 1014.21 1013.77 1013.21 1012.71 1012.61 1012.45 1012.19 1011.96 1011.72 1011.47 1011.29 1010.85 1010.50 1010.10 1009.61 1009.34 1009.07 1008.64 1008.37 1008.06 1007.74 1007.70 1007.87 1008.02 1008.01 1008.08 1008.00
Thickness
5731 5729 5727 5727 5726 5726 5725 5723 5721 5720 5719 5717 5716 5714 5714 5715 5715 5715 5717 5715 5713 5712 5710 5708 5707 5706 5705 5703 5702 5701 5699 5697 5696
5728 5728 5727 5725 5724 5723 5723 5722 5721 5719 5718 5716 5715 5714 5713 5713 5714 5714 5714 5713 5711 5710 5707 5706 5704 5703 5703 5701 5700 5698 5697 5695 5693
5728 5727 5726 5725 5723 5721 5721 5720 5719 5718 5717 5716 5714 5712 5711 5711 5713 5714 5714 5711 5709 5708 5706 5705 5703 5701 5700 5698 5697 5697 5695 5694 5692
5726 5725 5725 5724 5723 5722 5720 5719 5718 5717 5716 5715 5714 5713 5711 5709 5710 5712 5713 5711 5708 5706 5704 5702 5701 5700 5698 5697 5695 5694 5692 5691 5689
5723 5723 5723 5723 5723 5721 5719 5719 5718 5717 5716 5714 5713 5711 5710 5709 5709 5710 5712 5711 5709 5706 5703 5700 5698 5697 5695 5694 5692 5691 5688 5687 5686
5718 5718 5718 5718 5719 5719 5718 5718 5717 5716 5716 5714 5712 5711 5708 5708 5707 5708 5710 5710 5708 5705 5702 5700 5698 5695 5693 5692 5690 5687 5685 5684 5683
5713 5712 5713 5713 5714 5713 5713 5713 5712 5711 5712 5712 5710 5709 5708 5707 5708 5709 5711 5710 5708 5705 5702 5699 5697 5695 5693 5691 5689 5686 5683 5682 5681
5704 5706 5708 5709 5710 5709 5709 5708 5708 5707 5707 5708 5709 5708 5706 5705 5706 5709 5710 5709 5707 5704 5701 5698 5696 5693 5691 5690 5688 5686 5683 5681 5679
5695 5697 5699 5701 5702 5703 5704 5705 5704 5703 5702 5703 5704 5706 5704 5704 5705 5707 5707 5708 5706 5704 5700 5696 5693 5691 5690 5688 5687 5685 5683 5681 5679
5687 5689 5690 5692 5693 5694 5695 5696 5698 5698 5697 5697 5697 5697 5698 5700 5700 5702 5702 5703 5702 5700 5698 5694 5691 5688 5686 5685 5683 5682 5681 5679 5678
5680 5681 5682 5683 5683 5685 5686 5688 5690 5691 5692 5692 5692 5692 5692 5692 5694 5696 5695 5695 5695 5694 5693 5692 5689 5686 5684 5682 5681 5680 5679 5678 5676
5672 5672 5672 5673 5674 5675 5677 5678 5679 5680 5683 5684 5685 5686 5686 5686 5686 5687 5687 5687 5688 5689 5686 5686 5685 5683 5680 5680 5679 5678 5677 5676 5675
5663 5662 5662 5662 5663 5663 5664 5664 5665 5666 5667 5670 5675 5678 5680 5680 5680 5681 5680 5680 5681 5680 5681 5680 5679 5678 5677 5676 5676 5676 5674 5673 5672
5653 5652 5652 5652 5651 5651 5650 5651 5650 5650 5652 5655 5659 5662 5665 5669 5671 5671 5672 5673 5672 5672 5674 5674 5673 5672 5674 5673 5673 5672 5671 5669 5668
5642 5642 5641 5640 5639 5638 5637 5637 5637 5637 5637 5640 5645 5647 5649 5652 5655 5657 5660 5661 5662 5663 5663 5663 5664 5666 5665 5666 5669 5669 5667 5667 5665
5630 5628 5627 5626 5625 5624 5623 5623 5622 5622 5622 5622 5627 5631 5634 5638 5640 5642 5644 5647 5649 5652 5654 5654 5655 5658 5659 5658 5659 5661 5663 5662 5662
5619 5617 5615 5613 5612 5611 5610 5611 5610 5610 5609 5607 5608 5613 5617 5620 5624 5626 5629 5634 5637 5640 5643 5644 5644 5645 5649 5651 5651 5650 5652 5654 5655
5609 5607 5605 5602 5601 5600 5600 5600 5601 5600 5598 5598 5595 5599 5603 5606 5611 5613 5612 5617 5622 5626 5630 5634 5636 5635 5636 5639 5643 5643 5642 5644 5646
5602 5598 5596 5594 5593 5593 5593 5595 5596 5595 5593 5591 5591 5590 5594 5595 5599 5601 5606 5609 5611 5614 5615 5618 5624 5625 5625 5626 5630 5632 5630 5631 5634
5594 5592 5591 5590 5588 5587 5586 5587 5589 5590 5586 5585 5583 5585 5587 5588 5589 5593 5595 5595 5600 5602 5603 5608 5610 5612 5615 5617 5617 5617 5620 5620 5624